Back to catalog

METEOR 1-12

AliveWeatherPO
NORAD 6079·PAYLOAD·🇷🇺 Russia

Launched Jun 30, 1972 from Plesetsk Cosmodrome

Loading…

Next Passes (next 24 hours)

TLE

FreshSource: Space-Track

Epoch: Sep 14, 2026, 10:04 UTC

1 06079U 72049A   26257.41991303  .00000080  00000-0  43500-4 0  9990
2 06079  81.2234 261.2376 0009972 219.4681 140.5761 14.03592337773625

Track METEOR 1-12 in real time with AllMySat

Download on the App Store